Regional Weather Roundup
Issued by NWS

Home | Current Version | Previous Version | Graphics & Text | Print | Product List | Glossary On
Versions: 1 2 3 4 5 6 7 8 9 10 11 12 13 14 15 16 17 18 19 20 21 22 23 24 25 26 27 28 29 30 31 32 33 34 35 36 37 38 39 40 41 42 43 44 45 46 47 48 49 50
000
ASUS44 KMEG 251700
RWRTN
TENNESSEE HOURLY STATE WEATHER ROUNDUP
NATIONAL WEATHER SERVICE MEMPHIS TN
1200 PM CDT THU AUG 25 2016

TNZ002-004-019-021-049-052-054-088>092-251800-
WEST TENNESSEE

CITY           SKY/WX    TMP DP  RH WIND       PRES   REMARKS
MEMPHIS INTL   MOSUNNY   93  76  57 W7        30.13F HX 105
NWS MEMPHIS      N/A     84 N/A N/A MISG        N/A
JACKSON        MOSUNNY   91  76  61 W5        30.13F HX 103
DYERSBURG      PTSUNNY  N/A N/A N/A MISG        N/A
UNION CITY     SUNNY     90  77  66 SW6       30.12S HX 102
PARIS          PTSUNNY   86  75  70 CALM      30.15S HX  95
LEXINGTON      MOSUNNY   90  75  62 VRB3      30.14S HX 100
$$

TNZ008-025-027-028-033-062-065-066-251800-
NORTH MIDDLE TENNESSEE

CITY           SKY/WX    TMP DP  RH WIND       PRES   REMARKS
NASHVILLE      PTSUNNY   92  72  51 SW7       30.15F HX  99
CLARKSVILLE    MOSUNNY   88  74  63 SW8       30.14S HX  96
SMYRNA         PTSUNNY   88  73  62 MISG      30.15F HX  96
COOKEVILLE     SUNNY     91  75  59 NW5       30.17F HX 102
CROSSVILLE     MOSUNNY   85  71  63 W9        30.24F HX  90
$$

TNZ061-075-076-078-094-096-097-251800-
SOUTH MIDDLE TENNESSEE

CITY           SKY/WX    TMP DP  RH WIND       PRES   REMARKS
SHELBYVILLE    MOSUNNY   91  79  66 VRB3      30.18F HX 107
$$

TNZ017-018-042-046-047-251800-
NORTHEAST TENNESSEE

CITY           SKY/WX    TMP DP  RH WIND       PRES   REMARKS
TRI CITIES     PTSUNNY   83  71  67 SW7       30.23S
$$

TNZ012-013-036-069-073-074-251800-
CENTRAL EAST TENNESSEE

CITY           SKY/WX    TMP DP  RH WIND       PRES   REMARKS
KNOXVILLE      MOSUNNY   87  69  54 SW7G18    30.18F HX  91
OAK RIDGE      SUNNY     87  71  58 VRB6      30.20F HX  93
$$

TNZ083-085-099-251800-
SOUTHEAST TENNESSEE

CITY           SKY/WX    TMP DP  RH WIND       PRES   REMARKS
CHATTANOOGA    MOSUNNY   88  70  55 SW6       30.18F HX  93
$$

SKY/WX REPORTED AS FAIR MEANS FEW OR NO CLOUDS BELOW
12 THOUSAND FEET.





USA.gov is the U.S. government's official web portal to all federal, state and local government web resources and services.